Regional Weather Roundup
Issued by NWS

Home | Current Version | Previous Version | Graphics & Text | Print | Product List | Glossary On
Versions: 1 2 3 4 5 6 7 8 9 10 11 12 13 14 15 16 17 18 19 20 21 22 23 24 25 26 27 28 29 30 31 32 33 34 35 36 37 38 39 40 41 42 43 44 45 46 47 48 49 50
000
ASUS43 KOAX 030902
RWRNE

WEATHER ROUNDUP FOR NEBRASKA
NATIONAL WEATHER SERVICE OMAHA NE
400 AM CDT TUE MAY 03 2016

NOTES: SATELLITE DATA IS BEING USED TO AUGMENT CLOUD COVER ABOVE
       12000 FEET.
       "FAIR" INDICATES FEW OR NO CLOUDS BELOW 12,000 FEET WITH NO
       SIGNIFICANT WEATHER AND/OR OBSTRUCTIONS TO VISIBILITY.

  * THESE STATIONS DO NOT REPORT WEATHER SUCH AS RAIN...SNOW OR FOG.

NEZ001>004-019>022-054>056-031000-
NEBRASKA PANHANDLE

CITY           SKY/WX    TMP DP  RH WIND       PRES   REMARKS
SCOTTSBLUFF    CLEAR     41  36  82 NW9       30.08S
ALLIANCE       CLEAR     35  33  92 E7        30.06R WCI  29
CHADRON        CLEAR     39  35  86 SE5       30.08R
KIMBALL        CLEAR     39  33  80 W13       30.09S WCI  31
SIDNEY         PTCLDY    38  34  85 W10       30.06S WCI  31
$$

NEZ057>060-069>072-079>082-031000-
SOUTHWEST NEBRASKA

CITY           SKY/WX    TMP DP  RH WIND       PRES   REMARKS
NORTH PLATTE   CLOUDY    42  41  96 CALM      30.03S FOG
IMPERIAL       CLOUDY    43  41  93 N8        30.05R
LEXINGTON      MOCLDY    42  39  87 NE6       30.04S
MCCOOK         CLOUDY    44  42  93 N5        30.03S
$$

NEZ005>010-023>029-035>040-094-031000-
NORTH CENTRAL NEBRASKA

CITY           SKY/WX    TMP DP  RH WIND       PRES   REMARKS
VALENTINE      CLEAR     38  36  92 W7        30.06R WCI  33
AINSWORTH      CLEAR     39  38  99 W6        30.05R WCI  35
BROKEN BOW     CLEAR     43  39  86 W3        30.02F
ORD            PTCLDY    40  37  89 CALM      30.03S
$$

NEZ041-046>049-061>064-073>077-083>087-031000-
SOUTH CENTRAL NEBRASKA

CITY           SKY/WX    TMP DP  RH WIND       PRES   REMARKS
GRAND ISLAND   CLOUDY    45  37  73 S3        30.04F
AURORA         CLEAR     42  38  86 CALM      30.05S
HASTINGS       CLEAR     47  36  65 S6        30.04S
KEARNEY *      CLOUDY    46  39  76 S7        30.04F
YORK           CLEAR     43  39  87 S3        30.05S
$$

NEZ011>018-030>034-042>045-031000-
NORTHEAST NEBRASKA

CITY           SKY/WX    TMP DP  RH WIND       PRES   REMARKS
NORFOLK        PTCLDY    39  37  92 CALM      30.03S
ALBION         CLEAR     39  36  89 CALM      30.05R
BLAIR          PTCLDY    48  40  74 CALM      30.04S
COLUMBUS *     CLEAR     39  32  75 CALM      30.05S
FREMONT        CLEAR     44  44 100 CALM      30.04S
TEKAMAH        PTCLDY    44  41  89 CALM      30.04S
$$

NEZ050>053-065>068-078-088>093-031000-
SOUTHEAST NEBRASKA

CITY           SKY/WX    TMP DP  RH WIND       PRES   REMARKS
LINCOLN        CLEAR     43  41  93 CALM      30.07R
OMAHA EPPLEY   PTCLDY    46  42  86 SE3       30.05R
BEATRICE       PTCLDY    44  42  92 CALM      30.06S FOG
FALLS CITY     PTCLDY    44  42  93 CALM      30.06S
$$

NEZ044-045-051>053-067-031000-
OMAHA AREA

CITY           SKY/WX    TMP DP  RH WIND       PRES   REMARKS
OMAHA EPPLEY   PTCLDY    46  42  86 SE3       30.05R
BLAIR          PTCLDY    48  40  74 CALM      30.04S
FREMONT        CLEAR     44  44 100 CALM      30.04S
$$




USA.gov is the U.S. government's official web portal to all federal, state and local government web resources and services.